DELTA 1 DEB, 3974

Orbit data source: Space-Track

DELTA 1 DEB, 3974 is space debris in SSO originally from a launch on Fri, 16 Aug 1968 UTC launched from the Air Force Western Test Range (AFWTR). Debris objects in space refer to the collection of defunct objects orbiting the Earth. Examples of debris include non-operational satellites, rocket bodies, and fragments generated from explosions, collisions, or faulty payload assembly.

Loading next visibility...
Identifier
3974, 1968-069E
Orbit
SSO
Country
Flag of USUS
Related business
Manufacturer
Unknown
Mission
Spacecraft
Bus & Motor
Unknown
Mass
Unknown
Launch date (UTC)
1968-08-16 (58 years ago)
Launch vehicle
Unknown
Launch site
Air Force Western Test Range (AFWTR)
Object type
Payload
Rocket body
Debris
Shape & HBR
Unknown shape, 0.1 m
Radar Cross Section
Small (<0.1 m²)

Expand to show TLE details & history
Last TLE update: 1 week ago

TLE from 1 week ago
0 DELTA 1 DEB
1 03974U 68069E   26112.24078508 -.00000025  00000-0  13241-3 0  9990
2 03974 101.8422 208.1839 0034977 298.1331  87.0223 12.53281965640241
Epoch: 2026-04-22T05:46Z
TLE epoch observation values (Epoch: 2026-04-22T05:46:43.830Z)
Latitude
25.00268°
Longitude
-94.38785°
Altitude
1,452.197 km
Speed
7.139 km/s
True Right ascension
13h 30m 23s
True Declination
24° 52' 58"
Sunlit
Object was in full shadow at epoch
Visualization orbit readout
Latitude
Unknown
Longitude
Unknown
Altitude
Unknown
Speed
Unknown
Apparent Right ascension
Unknown
Apparent Declination
Unknown
Sunlit
N/A
Visualization observer readout
Local Sidereal Time
16:47:26
Azimuth
Unknown
Elevation
Unknown
Doppler factor
Unknown
Orbital elements
Apogee altitude
1,475.72 km
Perigee altitude
1,420.971 km
Semi-major axis
7,826.482 km
Eccentricity
0.0035
Inclination
101.8422°
RAAN
208.1839°
Arg. of periapsis
298.1331°
True anomaly
87.42265°
Mean anomaly
87.0223°
Eccentric anomaly
87.22247°
Mean motion
3.13468 °/min
Orbital period
114.84 mins
BSTAR
0.00013241
Loading maneuver chart data...
Computing Atmospheric mass density...
Loading historical data...
Loading historical data...
Loading historical data...
Loading historical data...
Loading historical data...
Loading historical data...
Loading historical data...

Documentation

Showing up to 5 results
|